Regional Weather Roundup
Issued by NWS Northern Indiana

Home | Current Version | Previous Version | Text Only | Print | Product List | Glossary On
Versions: 1 2 3 4 5 6 7 8 9 10 11 12 13 14 15 16 17 18 19 20 21 22 23 24 25 26 27 28 29 30 31 32 33 34 35 36 37 38 39 40 41 42 43 44 45 46 47 48 49 50
701
ASUS43 KIWX 230210
RWRIWX

KIWX WEATHER ROUNDUP
NATIONAL WEATHER SERVICE NORTHERN INDIANA
1000 PM EDT FRI SEP 22 2017

NOTE: "FAIR" INDICATES FEW OR NO CLOUDS BELOW 12,000 FEET WITH NO
SIGNIFICANT WEATHER AND/OR OBSTRUCTIONS TO VISIBILITY.

* THESE STATIONS ARE NOT UNDER NWS QUALITY CONTROL. THEY ALSO MAY NOT
  REPORT WEATHER SUCH AS PRECIPITATION OR FOG.

INZ001>027-230300-
NORTHERN INDIANA

CITY           SKY/WX    TMP DP  RH WIND       PRES   REMARKS
GARY*          CLEAR     75  68  78 E5        30.05S
VALPARAISO     CLEAR     78  68  71 CALM      30.06R
MICHIGAN CITY* CLEAR     72  72 100 CALM      30.05F
LAPORTE*       CLEAR     73  69  86 CALM      30.07S
KNOX*          CLEAR     73  68  83 E5        30.05S
SOUTH BEND     CLEAR     75  69  81 CALM      30.07R
GOSHEN         CLEAR     73  68  84 CALM      30.07S
MONTICELLO*    CLEAR     77  67  72 CALM      30.05S
LOGANSPORT*    CLEAR     72  63  73 CALM      30.07S
WARSAW*        CLEAR     72  70  94 CALM      30.07S
AUBURN*        CLEAR     73  66  78 CALM      30.08S
FORT WAYNE     CLEAR     72  68  87 CALM      30.07S
HUNTINGTON*    CLEAR     72  70  95 CALM      30.07S
PERU/GRISSOM   CLEAR     75  68  77 CALM      30.06R
MARION*        CLOUDY    72  70  94 CALM      30.08R

$$
INZ028>050-230300-
CENTRAL INDIANA

CITY           SKY/WX    TMP DP  RH WIND       PRES   REMARKS
LAFAYETTE      PTCLDY    74  69  85 CALM      30.04F
KOKOMO*        CLEAR     72  69  90 CALM      30.07S
MUNCIE*        CLEAR     71  68  90 CALM      30.07S
INDIANAPOLIS   PTCLDY    77  66  68 CALM      30.06R

$$
MIZ043>046-050>051-056>058-064>065-071>073-077>080-230300-
SOUTHWEST LOWER MICHIGAN

CITY           SKY/WX    TMP DP  RH WIND       PRES   REMARKS
BATTLE CREEK   CLEAR     75  64  68 S7        30.08S
BENTON HARBOR  CLEAR     73  68  84 E3        30.04F
COLDWATER*     CLEAR     72  65  80 E3        30.08S
HILLSDALE*     CLEAR     70  61  73 CALM      30.10S
HOLLAND        CLEAR     72  65  78 CALM      30.06R
GRAND RAPIDS   CLEAR     76  65  68 CALM      30.06R
KALAMAZOO      CLEAR     75  63  66 SW3       30.06F
STURGIS*       CLEAR     74  66  75 CALM      30.07S
THREE RIVERS*  FAIR      76  68  76 CALM      30.07F

$$
OHZ001>008-015>018-024>025-230300-
NORTHWEST OHIO

CITY           SKY/WX    TMP DP  RH WIND       PRES   REMARKS
WAUSEON*         N/A     72  70  94 E5        30.08S
DEFIANCE       CLEAR     73  68  84 E3        30.07S
FINDLAY        CLEAR     75  62  64 E7        30.07F
TOLEDO EXPRESS CLEAR     73  69  87 E3        30.07S
TOLEDO METCALF CLEAR     72  65  78 E5        30.08S
LIMA           CLEAR     71  67  87 E5        30.08F

$$
AND FOR LAKE MICHIGAN COASTAL AND OPEN LAKE BUOY OBSERVATIONS

STATION/POSITION TEMP    WIND        PRES    VSBY  WAVE
                 AIR SEA DIR/SP/G                  HT/PER
                 (F)     (DEG/KT/KT) (MB)    (MI)  (FT/S)
CALUMET HARBOR    78     120/  6/  9 1016.6S
MICHIGAN CITY     79      60/  3/  3   N/A
BURNS HARBOR      77      CALM  /  3 1017.9R
SAINT JOSEPH      78      CALM  /  1 1017.6
SOUTH LAKE BUOY   75 70  130/  8/ 10 1016.7R         0
4 MI NW BRIDGMAN  77 74  140/  4/  4 1016.9          0
MICHIGAN CITY     75 72  100/  4/  4   N/A           0

$$
&&




USA.gov is the U.S. government's official web portal to all federal, state and local government web resources and services.